SCP
3 3 2 1 1 0 0 0 0 0 0 0 0 0 0 0 0 0 0 0 0 0 0 0 0 0 1 1 1 1 1 1 1 1 1 1 1 1 1 1 1 1 1
3 3 2 1 1 0 0 0 0 0 0 0 0 0 0 0 0 0 0 0 0 0 0 0 0 0 1 1 1 1 1 1 1 1 1 1 1 1 1 1 1 1 1
3 3 2 1 1 0 0 0 0 0 0 0 0 0 0 0 0 0 0 0 0 0 0 0 1 1 1 0 0 0 1 1 1 1 1 1 1 1 1 1 1 1 1
3 3 2 1 1 0 0 0 0 0 0 0 0 0 0 0 0 0 0 0 0 0 0 0 1 1 1 0 0 0 0 0 1 1 1 1 1 1 1 1 1 1 1
2 2 2 1 0 0 0 0 0 0 0 0 0 0 0 0 0 0 0 0 0 0 0 0 0 0 0 0 0 0 0 0 1 1 1 1 0 0 0 1 1 1 1
2 2 1 1 0 0 0 0 0 0 0 0 0 0 0 0 0 0 0 0 0 0 0 0 0 0 0 0 0 0 0 1 1 0 0 0 0 0 0 1 1 1 1
2 2 1 1 0 0 0 0 0 0 0 0 0 0 0 0 0 0 0 0 0 0 0 0 0 0 0 0 0 0 0 1 0 0 0 0 0 0 0 1 1 1 1
3 2 1 1 0 0 0 0 0 0 0 0 0 0 0 0 0 0 0 0 0 0 0 0 0 0 0 0 0 0 0 0 0 0 0 0 0 0 0 0 1 1 1
3 2 1 1 0 0 0 0 0 0 0 0 0 0 0 0 0 0 0 0 0 0 0 0 0 0 0 0 0 0 0 0 0 0 0 0 0 0 0 0 1 1 1
2 2 1 1 0 0 0 0 0 0 0 0 0 0 0 0 0 0 0 0 0 0 0 0 0 0 0 0 0 0 0 0 0 0 0 0 0 0 0 0 0 1 1
2 1 1 1 0 0 0 0 0 0 0 0 0 0 0 0 0 0 0 0 0 0 0 0 0 0 0 0 0 0 0 0 0 0 0 0 0 0 0 0 0 0 0
1 1 0 0 0 0 0 0 0 0 0 0 0 0 0 0 0 0 0 0 0 0 0 0 0 0 0 0 0 0 0 0 0 0 0 0 0 0 0 0 0 0 0
1 0 0 0 0 0 0 0 0 0 0 0 0 0 0 0 0 0 0 0 0 0 0 0 0 0 0 0 0 0 0 0 0 0 0 0 0 0 0 0 0 0 0
1 0 0 0 0 0 0 0 0 0 0 0 0 0 0 0 0 0 0 0 0 0 0 0 0 0 0 0 0 0 0 0 0 0 0 0 0 0 0 0 0 0 0
0 0 0 0 0 0 0 0 0 0 0 0 0 0 0 0 0 0 0 0 0 0 0 0 0 0 0 0 0 0 0 0 0 0 0 0 0 0 0 0 0 0 0
0 0 0 0 0 0 0 0 0 0 0 0 0 0 0 0 0 0 0 0 0 0 0 0 0 0 0 0 0 0 0 0 0 0 0 0 0 0 0 0 0 0 0
0 0 0 0 0 0 0 0 0 0 0 0 0 0 0 0 0 0 0 0 0 0 0 0 0 0 0 0 0 0 0 0 0 0 0 0 0 0 0 0 0 0 0
0 0 0 0 0 0 0 0 0 0 0 0 0 0 0 0 0 0 0 0 0 0 0 0 0 0 0 0 0 0 0 0 0 0 0 0 0 0 0 0 0 0 0
0 0 0 0 0 1 0 0 0 0 0 0 0 0 0 0 0 0 0 0 0 0 0 0 0 0 0 0 0 0 0 0 0 0 0 0 0 0 0 0 0 0 0
0 0 0 0 0 1 1 0 0 0 0 0 0 0 0 0 0 0 0 0 0 0 0 0 0 0 0 0 0 0 0 0 0 0 0 0 0 0 0 0 0 0 0
0 0 0 0 0 1 1 0 0 0 0 0 0 0 0 0 0 0 0 0 0 0 0 0 0 0 0 0 0 0 0 0 0 0 0 0 0 0 0 0 0 0 0
0 0 0 0 0 1 1 0 0 0 0 0 0 0 0 0 0 0 0 0 0 0 0 0 0 0 0 0 0 0 0 0 0 0 0 0 0 0 0 0 0 0 0
0 0 0 0 0 0 0 0 0 0 0 0 0 0 0 0 0 0 0 0 0 0 0 0 0 0 0 0 0 0 0 0 0 0 0 0 0 0 0 0 0 0 0
0 0 0 0 0 0 0 0 0 0 0 0 0 0 0 0 0 0 0 0 0 0 0 0 0 0 0 0 0 0 0 0 0 0 0 0 0 0 0 0 0 0 0
0 0 0 0 0 0 0 0 0 0 0 0 0 0 0 0 0 0 0 0 0 0 0 0 0 0 0 0 0 0 0 0 0 0 0 0 0 0 0 0 0 0 0
0 0 0 0 0 0 0 0 0 0 0 0 0 0 0 0 0 0 0 0 0 0 0 0 0 0 0 0 0 0 0 0 0 0 0 0 0 0 0 0 0 0 0
Wind_Speed
4 3 3 3 3 3 4 4 4 5 5 5 5 6 5 5 4 4 3 8 9 9 9 9 9 9 9 10 10 10 10 10 10 10 10 10 10 10 10 10 10 10 10
4 4 4 3 3 3 3 4 4 4 4 4 5 5 5 4 5 5 4 5 9 9 9 9 8 8 8 9 9 9 10 10 10 10 10 9 9 9 9 9 9 9 9
4 4 4 3 3 3 4 4 5 4 4 4 5 5 4 5 5 5 5 4 4 7 9 9 8 7 7 8 8 8 9 9 9 9 9 9 10 9 8 9 8 9 9
5 4 4 3 3 3 4 4 4 4 4 4 4 3 3 4 5 4 4 4 4 4 6 9 9 8 7 7 8 8 8 8 8 8 8 9 9 10 8 8 8 8 8
4 4 4 4 4 3 3 4 3 3 4 4 4 3 3 3 3 4 4 5 4 4 4 7 9 9 8 7 7 7 7 7 7 7 8 8 8 9 9 7 7 7 7
4 4 4 5 5 4 3 4 4 3 3 4 4 4 3 3 3 3 3 3 3 4 4 4 4 5 8 7 7 6 6 6 6 6 7 7 7 7 8 7 7 6 7
4 4 4 4 5 4 4 5 4 5 3 3 3 3 2 3 3 2 2 2 3 3 3 4 3 3 3 6 7 6 5 5 6 6 6 6 6 6 6 7 5 6 6
5 4 5 4 4 4 5 5 5 3 2 2 3 3 1 1 2 2 2 2 2 2 3 3 3 3 2 2 4 6 5 5 4 4 4 4 5 5 5 5 6 4 5
4 4 5 5 5 5 5 5 5 4 4 1 1 3 4 3 1 1 1 1 1 1 1 2 2 2 2 2 2 4 5 4 3 3 3 3 4 4 4 4 5 4 4
4 4 5 5 5 4 5 6 4 3 5 4 1 0 1 3 3 1 1 1 1 0 0 1 1 1 1 1 2 3 3 3 3 3 2 2 3 3 3 4 4 6 4
4 4 5 5 5 4 5 5 5 4 4 4 3 2 2 2 2 3 2 1 1 1 0 0 0 0 1 1 0 1 2 2 2 3 2 2 3 3 3 4 5 5 6
3 4 5 5 5 5 5 5 5 5 4 4 3 3 3 4 3 3 3 2 1 1 1 1 1 1 0 0 1 1 1 2 3 3 3 3 3 3 4 4 5 5 6
3 5 5 5 5 5 5 5 5 5 5 5 4 3 3 3 3 3 3 2 1 1 1 1 1 1 1 1 1 1 2 2 3 3 4 4 3 3 4 4 5 6 6
3 4 5 5 5 5 5 5 5 5 4 5 5 4 3 3 3 4 4 4 2 1 2 3 1 2 2 2 2 1 1 3 3 4 4 4 4 4 4 5 5 6 6
2 4 5 5 5 6 6 6 5 5 5 4 4 4 3 3 3 3 3 4 5 4 4 4 3 2 2 2 2 1 1 3 4 4 4 4 4 4 5 5 5 6 7
2 3 4 5 5 5 5 6 5 5 5 5 4 4 4 3 3 2 3 3 3 4 4 3 3 2 2 2 3 2 2 4 5 5 5 4 4 4 5 5 6 6 7
3 3 4 5 5 5 6 6 6 6 6 5 4 5 5 4 3 3 3 3 3 3 3 2 1 1 2 2 2 1 2 2 3 5 5 5 5 5 6 6 6 7 7
3 3 4 4 5 5 6 6 7 7 7 7 6 6 5 4 4 4 3 4 4 3 3 3 2 2 3 3 2 2 2 2 2 4 5 6 6 6 6 6 6 7 8
3 3 3 4 4 4 5 6 6 6 7 7 7 7 6 6 6 4 5 4 3 3 2 3 2 1 1 2 1 2 2 2 2 3 4 5 5 5 5 5 6 6 7
3 3 3 4 4 5 5 5 5 6 6 6 6 7 7 7 7 6 5 5 4 4 3 3 2 2 2 2 2 2 2 2 2 2 4 4 5 5 5 6 7 7 7
3 3 3 3 4 4 5 6 6 6 6 6 6 6 7 8 9 7 5 5 5 4 4 3 3 2 2 3 4 3 3 2 2 2 2 2 2 2 3 5 7 7 7
2 3 3 4 4 4 6 8 6 6 6 6 6 6 6 7 8 10 10 9 8 6 6 5 4 5 5 5 3 3 3 2 3 2 2 3 2 3 3 3 6 8 8
2 3 3 4 4 5 7 8 8 5 6 6 6 5 5 5 6 5 7 8 8 9 9 6 6 6 6 6 5 5 5 4 4 2 2 3 2 3 3 4 8 8 8
2 2 3 4 4 5 7 7 7 5 5 5 6 6 6 6 6 6 5 5 5 5 6 6 6 6 5 5 6 5 4 2 1 1 2 3 3 3 3 3 8 8 8
2 3 3 3 4 5 6 6 6 3 4 4 5 5 6 6 8 8 6 5 5 4 4 5 5 5 5 5 5 3 3 3 2 2 2 2 2 2 3 3 5 7 8
2 3 3 3 4 5 6 6 6 3 4 4 4 5 7 8 9 8 6 6 6 4 3 3 3 3 3 4 6 5 5 4 2 3 3 2 2 1 2 2 2 3 4
Wind_Direction
117 110 104 98 98 101 104 100 95 89 82 74 71 69 61 54 49 45 33 48 61 71 77 80 82 85 85 81 78 78 75 72 67 66 66 65 68 71 71 68 68 68 67
125 120 115 111 108 109 107 106 106 98 87 81 73 66 61 53 48 46 40 37 47 60 67 72 76 80 83 82 80 76 74 72 69 66 65 63 62 66 68 66 65 65 65
128 126 125 122 121 115 111 106 100 96 91 82 71 63 61 54 50 45 43 39 35 45 60 66 67 71 77 78 79 77 74 72 69 63 60 58 56 58 64 64 63 64 62
131 129 130 129 122 121 120 119 115 105 94 88 76 58 53 51 49 48 48 43 39 35 46 56 56 59 69 72 74 76 72 70 67 64 59 55 53 50 55 61 61 60 58
141 136 137 136 130 125 126 128 115 116 114 104 89 68 51 49 41 47 50 44 42 42 41 45 47 49 55 60 65 72 70 67 64 61 58 54 51 47 44 52 55 54 52
147 141 141 142 136 131 128 128 121 107 118 117 96 70 49 41 42 45 46 43 42 44 45 47 42 37 43 50 54 60 64 62 60 56 55 52 47 44 39 39 48 49 47
149 148 148 151 148 147 146 142 130 120 112 124 105 80 42 42 47 38 40 50 42 38 50 49 45 39 29 38 41 47 57 61 60 56 52 46 39 35 35 30 33 40 38
158 158 158 161 159 147 144 144 139 134 137 149 134 126 91 1 3 12 25 49 36 34 47 42 45 43 36 31 32 38 42 51 50 50 47 39 33 28 24 23 24 32 32
166 163 163 161 166 161 163 163 159 151 159 179 152 147 156 196 266 344 1 20 26 42 42 35 42 42 37 33 25 26 34 28 32 32 32 28 23 19 17 13 19 18 24
170 166 163 165 168 169 169 173 168 159 160 172 165 78 134 144 154 183 322 340 338 358 22 14 23 26 28 33 25 23 22 10 5 4 8 2 359 0 4 4 2 7 3
176 174 173 171 170 172 175 173 171 173 175 178 175 161 137 111 129 153 201 268 306 288 265 252 267 323 353 360 353 12 4 342 335 334 334 332 331 335 345 350 350 348 353
189 184 181 179 177 177 179 179 179 183 186 185 183 180 176 168 172 165 175 195 238 275 292 257 240 236 247 272 286 320 308 308 308 310 308 309 313 319 326 330 335 336 338
212 197 188 184 186 187 183 179 183 188 189 191 194 199 201 194 166 159 154 164 202 272 268 248 232 229 236 230 252 255 269 280 288 289 291 298 307 313 315 318 322 325 327
224 200 192 189 189 187 184 184 188 193 193 196 204 201 203 205 189 177 168 158 161 243 244 242 234 220 226 225 239 256 256 262 270 277 284 291 299 306 309 311 316 316 321
237 201 194 192 189 187 187 186 191 195 193 201 205 206 209 209 206 202 185 176 168 195 230 221 215 218 218 219 236 229 234 250 259 269 280 284 292 301 300 299 302 307 313
229 215 197 194 192 187 187 190 193 195 197 204 199 201 213 205 201 203 196 197 195 191 221 210 210 202 211 229 235 232 237 243 252 258 264 266 269 277 284 291 296 299 302
215 220 205 197 196 194 190 193 199 194 199 204 204 202 210 203 201 200 199 197 205 192 214 243 219 201 199 208 237 236 246 236 249 255 256 257 262 268 274 283 290 292 293
221 221 206 202 200 199 196 196 201 199 199 203 208 206 209 204 204 204 203 207 207 200 192 220 225 213 217 212 209 221 249 262 256 259 251 252 259 266 270 278 286 291 292
226 225 201 203 200 201 203 204 202 201 203 205 204 206 207 201 207 206 205 209 209 204 193 194 216 223 223 207 197 233 242 258 266 263 253 254 259 264 269 279 289 293 293
226 223 211 209 203 202 203 206 208 203 204 208 207 207 205 204 206 202 206 207 205 199 188 186 198 206 210 197 187 213 239 236 260 275 260 264 265 266 271 278 284 288 290
243 221 214 214 212 210 207 206 201 203 204 209 212 213 212 210 212 210 209 202 196 202 193 195 201 204 207 197 210 211 228 242 255 254 257 263 267 263 264 270 274 280 285
256 225 216 213 217 227 231 227 213 201 203 207 211 215 217 215 217 219 224 220 209 206 202 199 208 211 217 215 207 208 211 218 248 224 221 260 254 256 261 258 270 277 280
254 237 222 214 218 229 232 229 226 210 203 208 209 211 217 219 218 213 221 227 228 232 221 210 208 215 211 207 198 206 212 215 232 219 208 246 244 254 262 271 273 275 279
240 243 237 225 223 230 234 231 229 214 206 210 212 210 213 218 217 209 207 217 225 233 230 221 218 218 213 201 200 205 207 209 297 240 203 235 243 255 269 266 269 274 279
248 250 243 230 228 236 239 235 228 205 208 216 218 214 214 218 222 215 205 210 222 236 242 231 228 223 218 211 198 171 173 193 240 239 211 213 237 266 271 264 265 273 280
251 256 258 242 231 232 239 238 230 206 209 215 220 221 224 224 224 216 206 203 214 223 214 210 218 219 208 205 201 191 188 198 214 230 201 195 218 240 279 268 260 274 276